Terminal Aerodrome Forecast
Issued by NWS North Platte, NE

Home | Current Version | Previous Version | Graphics & Text | Print | Product List | Glossary On
Versions: 1 2 3 4 5 6 7 8 9 10 11 12 13 14 15 16 17 18 19 20
839
FTUS43 KLBF 191734
TAFVTN
TAF
KVTN 191734Z 1918/2018 19010G18KT P6SM SKC
     FM192200 19012G20KT P6SM FEW070 BKN250
     FM200200 14008KT P6SM SCT200
     FM200500 VRB05KT P6SM SKC
     FM201500 04011KT P6SM SCT250=

USA.gov is the U.S. government's official web portal to all federal, state and local government web resources and services.